Regional Weather Roundup
Issued by NWS Grand Forks, ND

Home | Current Version | Previous Version | Graphics & Text | Print | Product List | Glossary On
Versions: 1 2 3 4 5 6 7 8 9 10 11 12 13 14 15 16 17 18 19 20 21 22 23 24 25 26 27 28 29 30 31 32 33 34 35 36 37 38 39 40 41 42 43 44 45 46 47 48 49 50
000
ASUS43 KFGF 260610
RWRFGF
PRAIRIE TO PINES  WEATHER ROUNDUP
NATIONAL WEATHER SERVICE EASTERN NORTH DAKOTA/GRAND FORKS ND
100 AM CDT TUE SEP 26 2017

 **SATELLITE DATA USED TO AUGMENT SKY COVER AT AUTOMATED STATIONS**
 *****  WEATHER ACROSS EASTERN NORTH DAKOTA  *****

CITY           SKY/WX    TMP DP  RH WIND       PRES   REMARKS
GRAND FORKS    CLOUDY    51  49  92 N12       30.08F
6HR MIN TEMP:  51; 6HR MAX TEMP:  52;

GRAND FRKS AFB CLOUDY    50  47  91 N9        30.09F
DEVILS LAKE    CLOUDY    45  42  89 NE3       30.14R
6HR MIN TEMP:  43; 6HR MAX TEMP:  50;

FARGO          LGT RAIN  50  50 100 N9        30.06F
WAHPETON ARPT  CLOUDY    50  46  87 NW8       30.05S
$$

 ***** WEATHER ACROSS CENTRAL AND WESTERN NORTH DAKOTA  *****

CITY           SKY/WX    TMP DP  RH WIND       PRES   REMARKS
BISMARCK       CLOUDY    48  45  89 CALM      30.13S
6HR MIN TEMP:  46; 6HR MAX TEMP:  52;

MINOT          CLOUDY    49  45  86 CALM      30.12R
6HR MIN TEMP:  49; 6HR MAX TEMP:  53;

JAMESTOWN      LGT RAIN  48  45  89 NE5       30.09F
6HR MIN TEMP:  48; 6HR MAX TEMP:  50; 6HR PCP:  0.01;

MINOT AFB      CLOUDY    49  45  85 CALM      30.11S
GARRISON         N/A     47  44  90 SE7       30.13R
WILLISTON      CLOUDY    47  46  97 CALM      30.11F FOG
6HR MIN TEMP:  47; 6HR MAX TEMP:  48; 6HR PCP:  0.02;

DICKINSON      CLOUDY    45  44  97 E3        30.09S
6HR MIN TEMP:  44; 6HR MAX TEMP:  47;

HETTINGER      CLOUDY    44  41  89 E5        30.11F
6HR MIN TEMP:  44; 6HR MAX TEMP:  49;

$$

 *****  OTHER AIRPORT OBSERVATIONS IN OUR AREA  *****

CITY           SKY/WX    TMP DP  RH WIND       PRES   REMARKS
WALHALLA       FAIR     N/A N/A N/A NE7       30.13R
GRAFTON AIRPOR FAIR      50  48  93 N8        30.12F
VALLEY CITY AR DRIZZLE   46  48 100 N7        30.11F
CANDO          MOCLDY    41  41 100 N5        30.16S
CAVALIER APRT  CLOUDY    48  46  93 N6        30.12S
GWINNER        CLOUDY    48  48 100 NW8       30.08F FOG
SHEYENNE NWR     N/A     50  49  97 N6        29.95S
ROLLA          MOCLDY    41  41 100 CALM      30.14S
 ***** THE ABOVE OBSERVATIONS ARE NON NWS ARE NOT QUALITY
       CONTROLLED AND MAY MIS-REPORT RAIN FOR SNOW...
$$

  *****  WEATHER ACROSS NORTHERN MINNESOTA  *****

CITY           SKY/WX    TMP DP  RH WIND       PRES   REMARKS
FLAG ISLAND    FAIR      52  46  82 NE6       30.09R
WARROAD        DRIZZLE   52  48  87 NE10      30.10R
ROSEAU           N/A     50  45  81 N6        30.09F HAZE
HALLOCK          N/A     50  48  93 N6        30.11F
THF RVR FALLS  CLOUDY    50  48  93 N8        30.09S
BAUDETTE       FAIR      50  48  93 N6        30.09R
6HR MIN TEMP:  49; 6HR MAX TEMP:  52;

WASKISH        CLOUDY    50  48  93 N3        30.07R
CROOKSTON      CLOUDY    52  48  87 N6        30.09S
STEPHEN NDAWN    N/A     50  48  93 N5          N/A
GREENBUSH NDAW   N/A     48  46  93 N3          N/A
$$
  *****  WEATHER ACROSS CENTRAL AND WEST MINNESOTA  *****

CITY           SKY/WX    TMP DP  RH WIND       PRES   REMARKS
FOSSTON        LGT RAIN  48  46  93 NE6       30.07S
BEMIDJI        LGT RAIN  49  49  98 N6        30.05S
6HR MIN TEMP:  49; 6HR MAX TEMP:  52; 6HR PCP:  0.01;

PARK RAPIDS    LGT RAIN  53  49  86 NE7       30.02F
6HR MIN TEMP:  53; 6HR MAX TEMP:  54; 6HR PCP:  0.04;

ELBOW LAKE     LGT RAIN  52  51  99 N3        30.02S
WADENA         RAIN      52  52 100 N6        30.00F
DETROIT LAKES  LGT RAIN  50  50 100 CALM      30.04F
MOORHEAD       LGT RAIN  50  48  93 NW8       30.07S
FERGUS FALLS   LGT RAIN  52  52 100 N6        30.04S
MORRIS MN      NOT AVBL
STAPLES        NOT AVBL
$$
  *****  WEATHER ELSEWHERE ACROSS MINNESOTA  *****

CITY           SKY/WX    TMP DP  RH WIND       PRES   REMARKS
DULUTH         LGT RAIN  55  55 100 NE7       29.97F FOG
6HR MIN TEMP:  54; 6HR MAX TEMP:  56; 6HR PCP:  0.06;

INTRNTL FALLS  CLOUDY    51  46  83 E6        30.06S
6HR MIN TEMP:  51; 6HR MAX TEMP:  54;

ELY            LGT RAIN  52  52 100 NE7       30.03S
CLOQUET        RAIN      55  54  94 N5        29.97F
WHEATON        RAIN      50  48  93 NW9       30.05S
BRAINERD       LGT RAIN  53  52  96 N7        29.99F FOG
6HR MIN TEMP:  53; 6HR MAX TEMP:  56; 6HR PCP:  0.14;

HIBBING        LGT RAIN  52  51  97 N6        30.00F
6HR MIN TEMP:  52; 6HR MAX TEMP:  54; 6HR PCP:  0.06;

ALEXANDRIA     CLOUDY    53  52  96 N9        30.01S
6HR MIN TEMP:  52; 6HR MAX TEMP:  56; 6HR PCP:  0.15;

SAINT CLOUD    LGT RAIN  55  55 100 N3        29.96F
6HR MIN TEMP:  55; 6HR MAX TEMP:  57; 6HR PCP:  0.12;

MINNEAPOLIS    LGT RAIN  58  58 100 N7        29.95S
6HR MIN TEMP:  58; 6HR MAX TEMP:  60; 6HR PCP:  0.05;

$$

  *****  WEATHER ACROSS SOUTH DAKOTA  *****

CITY           SKY/WX    TMP DP  RH WIND       PRES   REMARKS
SIOUX FALLS    LGT RAIN  52  52 100 NW9       30.01S FOG
6HR MIN TEMP:  52; 6HR MAX TEMP:  54; 6HR PCP:  0.08;

BROOKINGS      LGT RAIN  49  48  97 NW12      30.03R FOG
WATERTOWN      LGT RAIN  48  48 100 N13       30.04R FOG
6HR MIN TEMP:  48; 6HR MAX TEMP:  50; 6HR PCP:  0.35;

HURON          LGT RAIN  49  48  97 NW9       30.07R
6HR MIN TEMP:  49; 6HR MAX TEMP:  52; 6HR PCP:  0.46;

SISSETON         N/A     50  49  96 NW9       30.05R
ABERDEEN       LGT RAIN  48  48 100 NW7       30.09S
6HR MIN TEMP:  48; 6HR MAX TEMP:  51; 6HR PCP:  0.14;

MITCHELL       LGT RAIN  50  49  96 NW6       30.07S
PIERRE         MOCLDY    48  44  86 NW5       30.09F
6HR MIN TEMP:  47; 6HR MAX TEMP:  52;

MOBRIDGE       CLOUDY    49  45  86 CALM      30.09S
RAPID CITY     NOT AVBL
$$

  *****  SOME WEATHER IN NEARBY STATES *****

CITY           SKY/WX    TMP DP  RH WIND       PRES   REMARKS
GLASGOW MT     FAIR      39  37  92 E10       30.07S
6HR MIN TEMP:  38; 6HR MAX TEMP:  54;

GREAT FALLS MT CLOUDY    53  36  52 S8        30.05S
6HR MIN TEMP:  51; 6HR MAX TEMP:  60;

CHEYENNE WY    CLOUDY    42  39  89 SW7       30.16S
6HR MIN TEMP:  39; 6HR MAX TEMP:  50; 6HR PCP:  0.06;

SCOTTSBLUFF NE FAIR      43  41  93 E6        30.13S
6HR MIN TEMP:  43; 6HR MAX TEMP:  55;

OMAHA NE       LGT RAIN  59  56  89 NW6       29.97R
6HR MIN TEMP:  59; 6HR MAX TEMP:  63; 6HR PCP:  0.42;

DES MOINES IA  LGT RAIN  67  66  97 W7        29.94F FOG
6HR MIN TEMP:  67; 6HR MAX TEMP:  68; 6HR PCP:  0.62;

DAVENPORT IA   FAIR      71  65  81 W5        29.95R
6HR MIN TEMP:  70; 6HR MAX TEMP:  77;

CHICAGO IL     MOCLDY    74  58  57 S5        29.93S
6HR MIN TEMP:  73; 6HR MAX TEMP:  85;

EAU CLAIRE WI  CLOUDY    63  62  97 NE3       29.93S
6HR MIN TEMP:  63; 6HR MAX TEMP:  66; 6HR PCP:  0.01;

LA CROSSE WI   CLOUDY    69  67  93 CALM      29.91F
6HR MIN TEMP:  68; 6HR MAX TEMP:  72; 6HR PCP:  0.03;

$$

  *****  SOME NATIONAL WEATHER *****

CITY           SKY/WX    TMP DP  RH WIND       PRES   REMARKS
LA GUARDIA NY  FAIR      71  66  84 E6        30.04R
6HR MIN TEMP:  71; 6HR MAX TEMP:  76;

RALEIGH NC     MOCLDY    70  67  90 NE6       29.93F
6HR MIN TEMP:  70; 6HR MAX TEMP:  75;

ATLANTA GA     FAIR      74  61  63 NE6       29.98S
6HR MIN TEMP:  70; 6HR MAX TEMP:  81;

NEW ORLEANS LA FAIR      78  75  90 E5        29.88F
6HR MIN TEMP:  77; 6HR MAX TEMP:  82;

OKLAHOMA CITY  CLOUDY    69  68  96 NE7       29.93F
6HR MIN TEMP:  69; 6HR MAX TEMP:  78; 6HR PCP:  0.09;

ALBUQUERQUE NM FAIR      62  50  64 E25G31    30.00S
6HR MIN TEMP:  62; 6HR MAX TEMP:  74;

SALT LAKE CITY FAIR      47  37  68 SW5       30.12S
6HR MIN TEMP:  47; 6HR MAX TEMP:  60;

LOS ANGELES CA FAIR      69  58  67 S3        29.80R
6HR MIN TEMP:  68; 6HR MAX TEMP:  78;

BOISE ID       MOCLDY    55  38  52 SE5       30.09R
6HR MIN TEMP:  54; 6HR M



USA.gov is the U.S. government's official web portal to all federal, state and local government web resources and services.